This is the latest recevied weather packets stored in our database for station/object NQ9F. If no packets are shown the sender has not sent any weather packets the latest 10 day(s).
| Time | Temp. | Humidity | Pressure | Rain* | Wind** | Luminosity | Snow |
|---|---|---|---|---|---|---|---|
| 1777639250 | 12.78° C | 96% | 1016.8 hPa | 0 mm | - | 25 W/m² | - |
| 1777638642 | 12.78° C | 96% | 1016.8 hPa | 0 mm | - | 22 W/m² | - |
| 1777638339 | 12.78° C | 96% | 1016.8 hPa | 0 mm | - | 17 W/m² | - |
| 1777638034 | 12.78° C | 96% | 1016.6 hPa | 0 mm | - | 16 W/m² | - |
| 1777637731 | 12.78° C | 96% | 1016.7 hPa | 0 mm | - | 10 W/m² | - |
| 1777635605 | 12.78° C | 96% | 1016 hPa | 0 mm | - | 1 W/m² | - |
| 1777635302 | 12.78° C | 96% | 1015.8 hPa | 0 mm | - | 0 W/m² | - |
| 1777634998 | 12.78° C | 96% | 1015.3 hPa | 0 mm | - | 0 W/m² | - |
| 1777634694 | 12.78° C | 95% | 1015.3 hPa | 0 mm | - | 0 W/m² | - |
| 1777634392 | 12.78° C | 95% | 1015.8 hPa | 0 mm | - | 0 W/m² | - |
| 1777634089 | 12.78° C | 95% | 1015.9 hPa | 0 mm | - | 0 W/m² | - |
| 1777633785 | 12.78° C | 95% | 1016 hPa | 0 mm | - | 0 W/m² | - |
| 1777633483 | 12.78° C | 95% | 1015.9 hPa | 0 mm | - | 0 W/m² | - |
| 1777633181 | 12.78° C | 95% | 1016 hPa | 0 mm | - | 0 W/m² | - |
| 1777632878 | 12.78° C | 95% | 1016 hPa | 0 mm | - | 0 W/m² | - |
| 1777632573 | 12.78° C | 95% | 1015.8 hPa | 0 mm | - | 0 W/m² | - |
| 1777632271 | 12.78° C | 94% | 1015.8 hPa | 0 mm | - | 0 W/m² | - |
| 1777631967 | 13.33° C | 94% | 1015.8 hPa | 0 mm | - | 0 W/m² | - |
| 1777631666 | 13.33° C | 94% | 1015.8 hPa | 0 mm | - | 0 W/m² | - |
| 1777631363 | 13.33° C | 94% | 1016 hPa | 0 mm | - | 0 W/m² | - |
| 1777631060 | 13.33° C | 94% | 1016.1 hPa | 0 mm | - | 0 W/m² | - |
| 1777630756 | 13.33° C | 94% | 1016.2 hPa | 0 mm | - | 0 W/m² | - |
| 1777630453 | 13.33° C | 94% | 1016.2 hPa | 0 mm | - | 0 W/m² | - |
| 1777630150 | 13.33° C | 95% | 1016.3 hPa | 0 mm | - | 0 W/m² | - |
| 1777629848 | 13.33° C | 94% | 1016.6 hPa | 0 mm | - | 0 W/m² | - |
* Rain latest hour (hover to see other rain measurements)
** Current wind speed in m/s (hover to see current wind gust speed)